Time,TemperatureF,DewpointF,PressureIn,WindDirection,WindDirectionDegrees,WindSpeedMPH,WindSpeedGustMPH,Humidity,HourlyPrecipIn,Conditions,Clouds,dailyrainin,SoftwareType,DateUTC
2013-11-06 00:03:00,35.6,35.3,30.03,NW,315,10.4,-999.0,99,-99.99,,,0.00,Acu-Link.com,2013-11-06 06:03:00,
2013-11-06 00:18:00,35.4,35.1,30.03,NW,315,6.8,-999.0,99,-99.99,,,0.00,Acu-Link.com,2013-11-06 06:18:00,
2013-11-06 00:34:00,35.4,35.1,30.02,North,0,7.8,-999.0,99,-99.99,,,0.00,Acu-Link.com,2013-11-06 06:34:00,
2013-11-06 00:49:00,35.4,35.1,30.02,WNW,292,9.4,-999.0,99,-99.99,,,0.00,Acu-Link.com,2013-11-06 06:49:00,
2013-11-06 01:04:00,35.2,34.9,30.04,WNW,292,6.8,-999.0,99,-99.99,,,0.00,Acu-Link.com,2013-11-06 07:04:00,
2013-11-06 01:20:00,35.2,34.7,30.04,WNW,292,5.8,-999.0,98,-99.99,,,0.00,Acu-Link.com,2013-11-06 07:20:00,
2013-11-06 01:35:00,35.2,34.7,30.05,NNW,337,9.4,-999.0,98,-99.99,,,0.00,Acu-Link.com,2013-11-06 07:35:00,
2013-11-06 01:50:00,35.4,34.6,30.06,NW,315,10.4,-999.0,97,-99.99,,,0.00,Acu-Link.com,2013-11-06 07:50:00,
2013-11-06 02:05:00,35.4,34.6,30.06,North,0,5.3,-999.0,97,-99.99,,,0.00,Acu-Link.com,2013-11-06 08:05:00,
2013-11-06 02:20:00,35.4,34.9,30.05,North,0,10.9,-999.0,98,-99.99,,,0.00,Acu-Link.com,2013-11-06 08:20:00,
2013-11-06 02:36:00,34.9,34.6,30.05,WNW,292,5.8,-999.0,99,-99.99,,,0.00,Acu-Link.com,2013-11-06 08:36:00,
2013-11-06 02:51:00,34.9,34.6,30.06,NNE,22,9.9,-999.0,99,-99.99,,,0.00,Acu-Link.com,2013-11-06 08:51:00,
2013-11-06 03:06:00,34.5,34.2,30.06,North,0,7.3,-999.0,99,-99.99,,,0.00,Acu-Link.com,2013-11-06 09:06:00,
2013-11-06 03:21:00,34.3,34.0,30.06,NNE,22,9.9,-999.0,99,-99.99,,,0.00,Acu-Link.com,2013-11-06 09:21:00,
2013-11-06 03:37:00,34.3,33.8,30.07,NNW,337,8.3,-999.0,98,-99.99,,,0.00,Acu-Link.com,2013-11-06 09:37:00,
2013-11-06 03:52:00,34.3,33.5,30.08,North,0,9.9,-999.0,97,-99.99,,,0.00,Acu-Link.com,2013-11-06 09:52:00,
2013-11-06 04:07:00,34.3,33.3,30.10,WNW,292,9.4,-999.0,96,-99.99,,,0.00,Acu-Link.com,2013-11-06 10:07:00,
2013-11-06 04:22:00,34.5,33.5,30.10,North,0,10.9,-999.0,96,-99.99,,,0.00,Acu-Link.com,2013-11-06 10:22:00,
2013-11-06 04:38:00,34.7,33.7,30.09,North,0,7.3,-999.0,96,-99.99,,,0.00,Acu-Link.com,2013-11-06 10:38:00,
2013-11-06 04:53:00,34.7,33.7,30.09,NNW,337,6.3,-999.0,96,-99.99,,,0.00,Acu-Link.com,2013-11-06 10:53:00,
2013-11-06 05:08:00,34.7,33.7,30.09,NNW,337,11.4,-999.0,96,-99.99,,,0.00,Acu-Link.com,2013-11-06 11:08:00,
2013-11-06 05:23:00,34.3,33.0,30.10,NNW,337,5.3,-999.0,95,-99.99,,,0.00,Acu-Link.com,2013-11-06 11:23:00,
2013-11-06 05:38:00,33.8,32.8,30.11,West,270,3.2,-999.0,96,-99.99,,,0.00,Acu-Link.com,2013-11-06 11:38:00,
2013-11-06 05:54:00,34.2,33.4,30.14,NE,45,5.3,-999.0,97,-99.99,,,0.00,Acu-Link.com,2013-11-06 11:54:00,
2013-11-06 06:09:00,34.3,33.3,30.14,NNW,337,6.3,-999.0,96,-99.99,,,0.00,Acu-Link.com,2013-11-06 12:09:00,
2013-11-06 06:24:00,34.3,33.0,30.15,NNW,337,4.7,-999.0,95,-99.99,,,0.00,Acu-Link.com,2013-11-06 12:24:00,
2013-11-06 06:39:00,34.3,33.0,30.16,NNW,337,4.2,-999.0,95,-99.99,,,0.00,Acu-Link.com,2013-11-06 12:39:00,
2013-11-06 06:55:00,34.3,33.0,30.17,NNW,337,3.7,-999.0,95,-99.99,,,0.00,Acu-Link.com,2013-11-06 12:55:00,
2013-11-06 07:10:00,34.3,32.8,30.19,NW,315,5.8,-999.0,94,-99.99,,,0.00,Acu-Link.com,2013-11-06 13:10:00,
2013-11-06 07:25:00,34.3,32.8,30.19,WNW,292,7.8,-999.0,94,-99.99,,,0.00,Acu-Link.com,2013-11-06 13:25:00,
2013-11-06 07:40:00,34.7,33.2,30.21,NNW,337,7.8,-999.0,94,-99.99,,,0.00,Acu-Link.com,2013-11-06 13:40:00,
2013-11-06 07:55:00,34.9,33.1,30.21,NNW,337,4.7,-999.0,93,-99.99,,,0.00,Acu-Link.com,2013-11-06 13:55:00,
2013-11-06 08:11:00,35.2,33.4,30.23,North,0,6.3,-999.0,93,-99.99,,,0.00,Acu-Link.com,2013-11-06 14:11:00,
2013-11-06 08:26:00,35.6,33.5,30.23,NNW,337,5.8,-999.0,92,-99.99,,,0.00,Acu-Link.com,2013-11-06 14:26:00,
2013-11-06 08:41:00,36.1,33.5,30.24,NW,315,4.2,-999.0,90,-99.99,,,0.00,Acu-Link.com,2013-11-06 14:41:00,
2013-11-06 08:56:00,37.2,34.3,30.25,WNW,292,7.3,-999.0,89,-99.99,,,0.00,Acu-Link.com,2013-11-06 14:56:00,
2013-11-06 09:11:00,37.9,34.4,30.25,NNW,337,6.3,-999.0,87,-99.99,,,0.00,Acu-Link.com,2013-11-06 15:11:00,
2013-11-06 09:26:00,38.1,34.3,30.25,West,270,4.7,-999.0,86,-99.99,,,0.00,Acu-Link.com,2013-11-06 15:26:00,
2013-11-06 09:41:00,38.8,35.0,30.25,NNW,337,3.7,-999.0,86,-99.99,,,0.00,Acu-Link.com,2013-11-06 15:41:00,
2013-11-06 09:57:00,39.7,35.0,30.26,NNW,337,3.2,-999.0,83,-99.99,,,0.00,Acu-Link.com,2013-11-06 15:57:00,
2013-11-06 10:12:00,41.0,35.6,30.26,NNW,337,2.7,-999.0,81,-99.99,,,0.00,Acu-Link.com,2013-11-06 16:12:00,
2013-11-06 10:27:00,42.6,36.6,30.26,West,270,5.8,-999.0,79,-99.99,,,0.00,Acu-Link.com,2013-11-06 16:27:00,
2013-11-06 10:42:00,42.6,35.6,30.26,NNE,22,7.3,-999.0,76,-99.99,,,0.00,Acu-Link.com,2013-11-06 16:42:00,
2013-11-06 10:57:00,43.2,35.8,30.26,NW,315,7.8,-999.0,75,-99.99,,,0.00,Acu-Link.com,2013-11-06 16:57:00,
2013-11-06 11:12:00,43.9,36.2,30.26,North,0,3.7,-999.0,74,-99.99,,,0.00,Acu-Link.com,2013-11-06 17:12:00,
2013-11-06 11:27:00,44.4,35.9,30.26,NNW,337,6.3,-999.0,72,-99.99,,,0.00,Acu-Link.com,2013-11-06 17:27:00,
2013-11-06 11:43:00,46.2,36.2,30.26,West,270,4.2,-999.0,68,-99.99,,,0.00,Acu-Link.com,2013-11-06 17:43:00,
2013-11-06 11:58:00,47.1,36.3,30.26,NW,315,6.3,-999.0,66,-99.99,,,0.00,Acu-Link.com,2013-11-06 17:58:00,
2013-11-06 12:13:00,47.8,36.2,30.26,NW,315,4.2,-999.0,64,-99.99,,,0.00,Acu-Link.com,2013-11-06 18:13:00,
2013-11-06 12:28:00,47.8,36.2,30.25,WNW,292,2.7,-999.0,64,-99.99,,,0.00,Acu-Link.com,2013-11-06 18:28:00,
2013-11-06 12:44:00,47.7,35.7,30.25,East,90,3.7,-999.0,63,-99.99,,,0.00,Acu-Link.com,2013-11-06 18:44:00,
2013-11-06 12:59:00,49.3,35.6,30.25,NNW,337,2.7,-999.0,59,-99.99,,,0.00,Acu-Link.com,2013-11-06 18:59:00,
2013-11-06 13:14:00,51.8,36.6,30.25,SSE,157,5.3,-999.0,56,-99.99,,,0.00,Acu-Link.com,2013-11-06 19:14:00,
2013-11-06 13:29:00,47.8,34.6,30.25,NW,315,4.2,-999.0,60,-99.99,,,0.00,Acu-Link.com,2013-11-06 19:29:00,
2013-11-06 13:45:00,47.8,35.0,30.26,North,0,3.2,-999.0,61,-99.99,,,0.00,Acu-Link.com,2013-11-06 19:45:00,
2013-11-06 14:00:00,47.1,34.4,30.26,West,270,2.2,-999.0,61,-99.99,,,0.00,Acu-Link.com,2013-11-06 20:00:00,
2013-11-06 14:15:00,47.1,34.8,30.25,NNW,337,6.3,-999.0,62,-99.99,,,0.00,Acu-Link.com,2013-11-06 20:15:00,
2013-11-06 14:30:00,47.3,34.9,30.26,North,0,1.7,-999.0,62,-99.99,,,0.00,Acu-Link.com,2013-11-06 20:30:00,
2013-11-06 14:46:00,46.8,34.1,30.26,NW,315,4.2,-999.0,61,-99.99,,,0.00,Acu-Link.com,2013-11-06 20:46:00,
2013-11-06 15:01:00,46.6,35.1,30.26,WNW,292,1.1,-999.0,64,-99.99,,,0.00,Acu-Link.com,2013-11-06 21:01:00,
2013-11-06 15:16:00,46.9,35.0,30.26,NNW,337,0.0,-999.0,63,-99.99,,,0.00,Acu-Link.com,2013-11-06 21:16:00,
2013-11-06 15:31:00,46.0,34.5,30.27,SSE,157,2.2,-999.0,64,-99.99,,,0.00,Acu-Link.com,2013-11-06 21:31:00,
2013-11-06 15:46:00,45.7,35.0,30.26,NE,45,0.0,-999.0,66,-99.99,,,0.00,Acu-Link.com,2013-11-06 21:46:00,
2013-11-06 16:02:00,45.7,34.6,30.26,NW,315,3.2,-999.0,65,-99.99,,,0.00,Acu-Link.com,2013-11-06 22:02:00,
2013-11-06 16:17:00,45.1,34.8,30.26,West,270,2.7,-999.0,67,-99.99,,,0.00,Acu-Link.com,2013-11-06 22:17:00,
2013-11-06 16:32:00,44.4,34.1,30.26,NNE,22,2.7,-999.0,67,-99.99,,,0.00,Acu-Link.com,2013-11-06 22:32:00,
2013-11-06 16:47:00,43.5,33.3,30.26,SSW,202,0.0,-999.0,67,-99.99,,,0.00,Acu-Link.com,2013-11-06 22:47:00,
2013-11-06 17:02:00,42.1,33.4,30.26,WSW,247,0.0,-999.0,71,-99.99,,,0.00,Acu-Link.com,2013-11-06 23:02:00,
2013-11-06 17:18:00,39.9,33.0,30.26,SSW,202,0.0,-999.0,76,-99.99,,,0.00,Acu-Link.com,2013-11-06 23:18:00,
2013-11-06 17:33:00,38.3,32.7,30.27,SW,225,0.0,-999.0,80,-99.99,,,0.00,Acu-Link.com,2013-11-06 23:33:00,
2013-11-06 17:48:00,38.3,33.0,30.28,SW,225,2.2,-999.0,81,-99.99,,,0.00,Acu-Link.com,2013-11-06 23:48:00,
2013-11-06 18:03:00,38.7,33.1,30.29,South,180,1.7,-999.0,80,-99.99,,,0.00,Acu-Link.com,2013-11-07 00:03:00,
2013-11-06 18:19:00,38.7,33.4,30.29,WSW,247,1.7,-999.0,81,-99.99,,,0.00,Acu-Link.com,2013-11-07 00:19:00,
2013-11-06 18:36:00,38.7,33.7,30.29,SW,225,0.0,-999.0,82,-99.99,,,0.00,Acu-Link.com,2013-11-07 00:36:00,
2013-11-06 18:52:00,38.7,33.7,30.29,South,180,0.0,-999.0,82,-99.99,,,0.00,Acu-Link.com,2013-11-07 00:52:00,
2013-11-06 19:07:00,38.5,33.5,30.30,SW,225,0.0,-999.0,82,-99.99,,,0.00,Acu-Link.com,2013-11-07 01:07:00,
2013-11-06 19:23:00,38.3,33.6,30.29,SW,225,1.1,-999.0,83,-99.99,,,0.00,Acu-Link.com,2013-11-07 01:23:00,
2013-11-06 19:38:00,37.2,33.1,30.29,SSW,202,0.0,-999.0,85,-99.99,,,0.00,Acu-Link.com,2013-11-07 01:38:00,
2013-11-06 19:53:00,36.1,32.6,30.30,SW,225,2.2,-999.0,87,-99.99,,,0.00,Acu-Link.com,2013-11-07 01:53:00,
2013-11-06 20:08:00,35.4,32.8,30.30,South,180,0.0,-999.0,90,-99.99,,,0.00,Acu-Link.com,2013-11-07 02:08:00,
2013-11-06 20:23:00,34.7,32.6,30.29,SSW,202,0.0,-999.0,92,-99.99,,,0.00,Acu-Link.com,2013-11-07 02:23:00,
2013-11-06 20:39:00,34.2,32.1,30.29,West,270,1.7,-999.0,92,-99.99,,,0.00,Acu-Link.com,2013-11-07 02:39:00,
2013-11-06 20:54:00,33.8,32.0,30.31,SW,225,2.7,-999.0,93,-99.99,,,0.00,Acu-Link.com,2013-11-07 02:54:00,
2013-11-06 21:09:00,34.2,32.1,30.31,SW,225,2.2,-999.0,92,-99.99,,,0.00,Acu-Link.com,2013-11-07 03:09:00,
2013-11-06 21:24:00,33.8,31.7,30.31,SW,225,2.7,-999.0,92,-99.99,,,0.00,Acu-Link.com,2013-11-07 03:24:00,
2013-11-06 21:39:00,33.3,31.5,30.31,SW,225,2.7,-999.0,93,-99.99,,,0.00,Acu-Link.com,2013-11-07 03:39:00,
2013-11-06 21:55:00,32.9,31.4,30.32,SSW,202,2.2,-999.0,94,-99.99,,,0.00,Acu-Link.com,2013-11-07 03:55:00,
2013-11-06 22:10:00,32.7,31.4,30.31,SSW,202,1.7,-999.0,95,-99.99,,,0.00,Acu-Link.com,2013-11-07 04:10:00,
2013-11-06 22:25:00,32.5,31.5,30.31,SSW,202,2.7,-999.0,96,-99.99,,,0.00,Acu-Link.com,2013-11-07 04:25:00,
2013-11-06 22:41:00,32.4,31.4,30.31,SSW,202,3.2,-999.0,96,-99.99,,,0.00,Acu-Link.com,2013-11-07 04:41:00,
2013-11-06 22:56:00,32.2,31.4,30.31,SSW,202,2.7,-999.0,97,-99.99,,,0.00,Acu-Link.com,2013-11-07 04:56:00,
2013-11-06 23:11:00,32.4,31.6,30.31,SW,225,3.2,-999.0,97,-99.99,,,0.00,Acu-Link.com,2013-11-07 05:11:00,
2013-11-06 23:26:00,32.4,31.4,30.31,SSW,202,4.7,-999.0,96,-99.99,,,0.00,Acu-Link.com,2013-11-07 05:26:00,
2013-11-06 23:41:00,32.4,31.4,30.31,South,180,2.7,-999.0,96,-99.99,,,0.00,Acu-Link.com,2013-11-07 05:41:00,
2013-11-06 23:57:00,31.8,30.8,30.31,SW,225,3.7,-999.0,96,-99.99,,,0.00,Acu-Link.com,2013-11-07 05:57:00,